TimeEST,TemperatureF,Dew PointF,Humidity,Sea Level PressureIn,VisibilityMPH,Wind Direction,Wind SpeedMPH,Gust SpeedMPH,PrecipitationIn,Events,Conditions,WindDirDegrees,DateUTC
12:15 AM,19.4,3.2,49,29.82,10.0,NNW,8.1,-,N/A,,Overcast,340,2013-02-17 05:15:00
12:35 AM,19.4,1.4,46,29.80,10.0,North,9.2,-,N/A,,Overcast,350,2013-02-17 05:35:00
12:55 AM,19.4,1.4,46,29.79,10.0,NNW,10.4,-,N/A,,Overcast,330,2013-02-17 05:55:00
1:15 AM,17.6,1.4,49,29.77,10.0,NNW,9.2,-,N/A,,Overcast,340,2013-02-17 06:15:00
1:35 AM,17.6,1.4,49,29.76,10.0,NW,9.2,17.3,N/A,,Overcast,320,2013-02-17 06:35:00
2:15 AM,17.6,1.4,49,29.77,10.0,NNW,11.5,18.4,N/A,,Overcast,330,2013-02-17 07:15:00
2:35 AM,17.6,1.4,49,29.76,10.0,NW,9.2,-,N/A,,Overcast,320,2013-02-17 07:35:00
2:55 AM,17.6,3.2,53,29.74,10.0,NNW,12.7,21.9,N/A,,Overcast,340,2013-02-17 07:55:00
3:15 AM,17.6,1.4,49,29.75,10.0,NW,15.0,24.2,N/A,,Overcast,320,2013-02-17 08:15:00
3:35 AM,15.8,3.2,58,29.74,10.0,NNW,4.6,19.6,N/A,,Mostly Cloudy,330,2013-02-17 08:35:00
3:55 AM,15.8,1.4,53,29.74,10.0,NW,9.2,17.3,N/A,,Scattered Clouds,310,2013-02-17 08:55:00
4:35 AM,15.8,1.4,53,29.72,10.0,NW,11.5,19.6,N/A,,Mostly Cloudy,310,2013-02-17 09:35:00
4:55 AM,14.0,1.4,57,29.73,10.0,NW,11.5,17.3,N/A,,Overcast,320,2013-02-17 09:55:00
5:15 AM,14.0,1.4,57,29.72,10.0,NW,9.2,17.3,N/A,,Mostly Cloudy,320,2013-02-17 10:15:00
5:35 AM,14.0,1.4,57,29.71,10.0,NW,10.4,16.1,N/A,,Scattered Clouds,320,2013-02-17 10:35:00
5:55 AM,12.2,3.2,67,29.72,10.0,NW,11.5,19.6,N/A,,Clear,320,2013-02-17 10:55:00
6:15 AM,12.2,3.2,67,29.72,10.0,NNW,12.7,20.7,N/A,,Mostly Cloudy,330,2013-02-17 11:15:00
6:35 AM,12.2,3.2,67,29.71,10.0,NNW,13.8,24.2,N/A,,Overcast,330,2013-02-17 11:35:00
7:15 AM,12.2,3.2,67,29.70,10.0,NNW,13.8,20.7,N/A,,Overcast,330,2013-02-17 12:15:00
7:35 AM,10.4,5.0,79,29.69,10.0,NNW,12.7,24.2,N/A,,Overcast,330,2013-02-17 12:35:00
7:55 AM,10.4,3.2,73,29.69,10.0,NNW,12.7,23.0,N/A,,Overcast,330,2013-02-17 12:55:00
8:15 AM,10.4,5.0,79,29.68,10.0,NW,13.8,25.3,N/A,,Overcast,320,2013-02-17 13:15:00
8:55 AM,10.4,3.2,73,29.66,10.0,NW,11.5,19.6,N/A,,Overcast,320,2013-02-17 13:55:00
9:15 AM,10.4,3.2,73,29.65,10.0,NW,13.8,25.3,N/A,,Overcast,320,2013-02-17 14:15:00
9:55 AM,12.2,3.2,67,29.65,10.0,WNW,15.0,25.3,N/A,,Overcast,300,2013-02-17 14:55:00
10:15 AM,12.2,3.2,67,29.65,10.0,NNW,16.1,27.6,N/A,,Overcast,330,2013-02-17 15:15:00
10:35 AM,12.2,3.2,67,29.65,10.0,NW,15.0,26.5,N/A,,Overcast,310,2013-02-17 15:35:00
10:55 AM,12.2,1.4,62,29.64,10.0,NW,15.0,27.6,N/A,,Overcast,320,2013-02-17 15:55:00
11:15 AM,10.4,3.2,73,29.64,10.0,NW,13.8,25.3,N/A,,Overcast,320,2013-02-17 16:15:00
11:55 AM,10.4,3.2,73,29.63,10.0,NW,12.7,23.0,N/A,,Overcast,320,2013-02-17 16:55:00
12:15 PM,12.2,3.2,67,29.62,10.0,NW,13.8,24.2,N/A,,Overcast,320,2013-02-17 17:15:00
12:35 PM,12.2,3.2,67,29.62,10.0,NNW,17.3,25.3,N/A,,Mostly Cloudy,330,2013-02-17 17:35:00
12:55 PM,12.2,3.2,67,29.62,10.0,NW,15.0,21.9,N/A,,Mostly Cloudy,320,2013-02-17 17:55:00
1:15 PM,12.2,1.4,62,29.62,10.0,NW,17.3,23.0,N/A,,Overcast,320,2013-02-17 18:15:00
1:35 PM,12.2,3.2,67,29.61,10.0,NW,12.7,21.9,N/A,,Overcast,320,2013-02-17 18:35:00
1:55 PM,14.0,3.2,62,29.61,10.0,NNW,10.4,18.4,N/A,,Overcast,330,2013-02-17 18:55:00
2:15 PM,14.0,1.4,57,29.61,10.0,NNW,11.5,21.9,N/A,,Overcast,330,2013-02-17 19:15:00
2:35 PM,14.0,1.4,57,29.61,10.0,NW,17.3,26.5,N/A,,Overcast,320,2013-02-17 19:35:00
2:55 PM,15.8,1.4,53,29.61,10.0,NW,17.3,23.0,N/A,,Scattered Clouds,320,2013-02-17 19:55:00
3:15 PM,15.8,1.4,53,29.61,10.0,NW,11.5,24.2,N/A,,Scattered Clouds,320,2013-02-17 20:15:00
3:35 PM,15.8,1.4,53,29.61,10.0,NNW,12.7,29.9,N/A,,Partly Cloudy,330,2013-02-17 20:35:00
4:15 PM,15.8,1.4,53,29.61,10.0,NNW,13.8,21.9,N/A,,Partly Cloudy,330,2013-02-17 21:15:00
4:35 PM,15.8,-0.4,49,29.61,10.0,NNW,12.7,21.9,N/A,,Clear,330,2013-02-17 21:35:00
4:55 PM,15.8,-0.4,49,29.63,10.0,NNW,9.2,18.4,N/A,,Clear,340,2013-02-17 21:55:00
5:15 PM,15.8,-0.4,49,29.63,10.0,NNW,10.4,18.4,N/A,,Partly Cloudy,330,2013-02-17 22:15:00
5:35 PM,15.8,-0.4,49,29.65,10.0,NW,10.4,18.4,N/A,,Partly Cloudy,320,2013-02-17 22:35:00
5:55 PM,15.8,-0.4,49,29.66,10.0,NW,10.4,16.1,N/A,,Partly Cloudy,320,2013-02-17 22:55:00
6:15 PM,15.8,-0.4,49,29.67,10.0,WNW,10.4,17.3,N/A,,Partly Cloudy,290,2013-02-17 23:15:00
6:35 PM,15.8,-2.2,45,29.68,10.0,WNW,12.7,18.4,N/A,,Mostly Cloudy,290,2013-02-17 23:35:00
6:56 PM,14.0,-2.2,49,29.69,10.0,WNW,10.4,-,N/A,,Overcast,300,2013-02-17 23:56:00
7:35 PM,12.2,-4.0,48,29.70,10.0,WNW,13.8,21.9,N/A,,Partly Cloudy,290,2013-02-18 00:35:00
7:55 PM,12.2,-2.2,53,29.71,10.0,WNW,10.4,17.3,N/A,,Scattered Clouds,290,2013-02-18 00:55:00
8:15 PM,10.4,-2.2,57,29.72,10.0,WNW,10.4,19.6,N/A,,Mostly Cloudy,290,2013-02-18 01:15:00
8:35 PM,10.4,-2.2,57,29.72,10.0,West,13.8,23.0,N/A,,Scattered Clouds,280,2013-02-18 01:35:00
8:55 PM,10.4,-2.2,57,29.73,10.0,WNW,12.7,24.2,N/A,,Mostly Cloudy,300,2013-02-18 01:55:00
9:15 PM,10.4,-2.2,57,29.73,10.0,WNW,12.7,21.9,N/A,,Overcast,290,2013-02-18 02:15:00
9:35 PM,10.4,-2.2,57,29.74,10.0,WNW,13.8,19.6,N/A,,Overcast,290,2013-02-18 02:35:00
10:15 PM,10.4,-2.2,57,29.75,10.0,WNW,12.7,25.3,N/A,,Overcast,290,2013-02-18 03:15:00
10:35 PM,8.6,-2.2,62,29.75,10.0,WNW,15.0,23.0,N/A,,Overcast,290,2013-02-18 03:35:00
10:55 PM,8.6,-2.2,62,29.77,10.0,WNW,12.7,20.7,N/A,,Overcast,290,2013-02-18 03:55:00
11:15 PM,8.6,-2.2,62,29.78,10.0,WNW,12.7,21.9,N/A,,Overcast,300,2013-02-18 04:15:00
11:35 PM,8.6,-2.2,62,29.79,10.0,West,11.5,16.1,N/A,,Overcast,280,2013-02-18 04:35:00
11:55 PM,8.6,-2.2,62,29.80,10.0,WNW,9.2,16.1,N/A,,Overcast,290,2013-02-18 04:55:00